Weather History for Quincy, IL

Change the Weather History Date:

Monday, April 25, 2011

  Actual Average Record
Temperature  
Mean Temperature 56 °F 56 °F  
Max Temperature 60 °F 67 °F 92 °F (1986)
Min Temperature 51 °F 46 °F 32 °F (1934)
Degree Days  
Heating Degree Days 10 9  
Month to date heating degree days 328  
Since 1 July heating degree days 5388  
Cooling Degree Days 0 1  
Month to date cooling degree days 12  
Year to date cooling degree days 14  
Growing Degree Days 6 (Base 50)    
Moisture  
Dew Point 54 °F    
Average Humidity 92    
Maximum Humidity 100    
Minimum Humidity 80    
Precipitation  
Precipitation 0.08 in 0.13 in 3.20 in (1904)
Month to date precipitation 3.03  
Year to date precipitation 8.89  
Sea Level Pressure  
Sea Level Pressure 29.70 in    
Wind  
Wind Speed 8 mph (East)    
Max Wind Speed 15 mph    
Max Gust Speed -    
Visibility 5 miles    
Events Rain    
T = Trace of Precipitation, MM = Missing Value Source: NWS Daily Summary

Daily Weather History Graph

Daily Weather History Graph

Search for Another Location

Airport:

Trip Planner

Search our weather history database for the weather conditions in past years. The results will help you decide how hot, cold, wet, or windy it might be!

Date:

Astronomy

Apr. 25, 2011 Rise Set
Actual Time 6:13 AM CDT 7:53 PM CDT
Civil Twilight 5:44 AM CDT 8:21 PM CDT
Nautical Twilight 5:09 AM CDT 8:56 PM CDT
Astronomical Twilight 4:32 AM CDT 9:33 PM CDT
Moon 2:19 AM CDT (4/25) 12:59 PM CDT (4/25)
Length of Visible Light 14h 37m
Length of Day
13h 40m
Last Quarter, 44% of the Moon is Illuminated
Apr 25
Last Quarter
May 3
New
May 10
First Quarter
May 17
Full
May 24
Last Quarter

Hourly Weather History & Observations

Time (CDT) Temp. Dew Point Humidity Pressure Visibility Wind Dir Wind Speed Gust Speed Precip Events Conditions
12:54 AM 55.0 °F 48.9 °F 80% 29.93 in 10.0 mi ENE 5.8 mph - N/A   Overcast
1:54 AM 54.0 °F 48.9 °F 83% 29.90 in 10.0 mi NE 5.8 mph - N/A   Overcast
2:54 AM 53.6 °F 48.2 °F 82% 29.88 in 10.0 mi NE 5.8 mph - N/A   Overcast
3:28 AM 53.6 °F 48.2 °F 82% 29.86 in 10.0 mi NE 10.4 mph - N/A   Overcast
3:54 AM 53.6 °F 48.2 °F 82% 29.86 in 10.0 mi NE 8.1 mph - N/A   Overcast
4:54 AM 53.1 °F 48.0 °F 83% 29.85 in 10.0 mi ENE 8.1 mph - N/A   Overcast
5:54 AM 53.1 °F 48.9 °F 86% 29.83 in 7.0 mi ENE 9.2 mph - N/A   Overcast
6:29 AM 51.8 °F 48.2 °F 88% 29.83 in 9.0 mi ENE 11.5 mph - N/A   Overcast
6:54 AM 53.1 °F 48.9 °F 86% 29.83 in 8.0 mi ENE 10.4 mph - N/A   Overcast
7:54 AM 53.1 °F 50.0 °F 89% 29.80 in 6.0 mi East 15.0 mph - N/A   Overcast
8:16 AM 53.6 °F 50.0 °F 88% 29.80 in 5.0 mi East 15.0 mph - N/A   Overcast
8:54 AM 53.6 °F 51.8 °F 94% 29.79 in 3.0 mi East 13.8 mph - N/A   Overcast
9:09 AM 53.6 °F 51.8 °F 94% 29.79 in 2.5 mi East 11.5 mph - N/A   Overcast
9:31 AM 53.6 °F 51.8 °F 94% 29.79 in 3.0 mi East 10.4 mph - N/A   Overcast
9:54 AM 53.1 °F 51.1 °F 93% 29.81 in 3.0 mi East 8.1 mph - N/A   Overcast
10:11 AM 53.6 °F 51.8 °F 94% 29.81 in 2.5 mi East 6.9 mph - N/A   Overcast
10:54 AM 54.0 °F 52.0 °F 93% 29.81 in 2.5 mi East 8.1 mph - N/A   Overcast
11:24 AM 53.6 °F 53.6 °F 100% 29.82 in 3.0 mi East 5.8 mph - N/A   Overcast
11:43 AM 53.6 °F 51.8 °F 94% 29.80 in 2.5 mi East 9.2 mph - 0.00 in Rain Light Rain
11:54 AM 54.0 °F 53.1 °F 97% 29.80 in 2.0 mi East 9.2 mph - 0.00 in Rain Light Rain
12:27 PM 55.4 °F 53.6 °F 94% 29.79 in 1.8 mi East 6.9 mph - 0.00 in   Overcast
12:43 PM 55.4 °F 53.6 °F 94% 29.78 in 2.0 mi East 6.9 mph - 0.00 in Rain Light Rain
12:54 PM 55.0 °F 53.1 °F 93% 29.78 in 1.8 mi East 6.9 mph - 0.00 in Rain Light Rain
1:19 PM 55.4 °F 53.6 °F 94% 29.76 in 3.0 mi ENE 5.8 mph - 0.03 in Rain Light Rain
1:42 PM 55.4 °F 53.6 °F 94% 29.75 in 2.0 mi ENE 6.9 mph - 0.04 in Rain Light Rain
1:54 PM 55.0 °F 54.0 °F 96% 29.74 in 2.5 mi ENE 8.1 mph - 0.04 in Rain Light Rain
2:02 PM 55.4 °F 53.6 °F 94% 29.73 in 3.0 mi ENE 10.4 mph - 0.00 in   Overcast
2:28 PM 55.4 °F 53.6 °F 94% 29.72 in 2.5 mi ENE 10.4 mph - 0.00 in   Overcast
2:46 PM 55.4 °F 55.4 °F 100% 29.70 in 1.2 mi East 10.4 mph - 0.00 in Rain Light Rain
2:54 PM 55.9 °F 55.0 °F 97% 29.69 in 1.2 mi East 11.5 mph - 0.00 in Rain Light Rain
3:23 PM 57.2 °F 55.4 °F 94% 29.66 in 3.0 mi East 12.7 mph - 0.00 in   Overcast
3:54 PM 57.0 °F 55.0 °F 93% 29.63 in 3.0 mi East 12.7 mph - 0.01 in Rain Light Rain
4:54 PM 57.9 °F 55.9 °F 93% 29.62 in 4.0 mi East 9.2 mph - 0.00 in   Overcast
5:54 PM 59.0 °F 57.0 °F 93% 29.62 in 5.0 mi East 6.9 mph - N/A   Overcast
6:06 PM 59.0 °F 57.2 °F 94% 29.60 in 5.0 mi East 9.2 mph - N/A   Overcast
6:25 PM 59.0 °F 57.2 °F 94% 29.60 in 5.0 mi East 6.9 mph - N/A   Overcast
6:54 PM 59.0 °F 57.0 °F 93% 29.59 in 4.0 mi East 5.8 mph - N/A   Overcast
7:17 PM 59.0 °F 57.2 °F 94% 29.58 in 5.0 mi East 5.8 mph - N/A   Overcast
7:30 PM 59.0 °F 57.2 °F 94% 29.58 in 5.0 mi East 6.9 mph - N/A   Overcast
7:54 PM 59.0 °F 57.0 °F 93% 29.55 in 6.0 mi East 5.8 mph - N/A   Overcast
8:03 PM 59.0 °F 57.2 °F 94% 29.55 in 7.0 mi East 5.8 mph - N/A   Overcast
8:54 PM 60.1 °F 57.0 °F 90% 29.50 in 8.0 mi ESE 10.4 mph - N/A   Overcast
9:01 PM 60.8 °F 57.2 °F 88% 29.50 in 7.0 mi ESE 11.5 mph - N/A   Overcast
9:41 PM 60.8 °F 57.2 °F 88% 29.48 in 10.0 mi ESE 12.7 mph - N/A   Overcast
9:54 PM 60.1 °F 57.0 °F 90% 29.48 in 10.0 mi ESE 12.7 mph - N/A   Mostly Cloudy
10:20 PM 59.0 °F 57.2 °F 94% 29.48 in 10.0 mi SE 8.1 mph - 0.00 in Rain Light Rain
10:54 PM 59.0 °F 57.0 °F 93% 29.46 in 10.0 mi ESE 5.8 mph - 0.00 in   Overcast
11:31 PM 59.0 °F 57.2 °F 94% 29.46 in 8.0 mi Calm Calm - 0.02 in Rain Light Rain
11:54 PM 59.0 °F 57.0 °F 93% 29.43 in 10.0 mi ESE 4.6 mph - 0.03 in Rain Light Rain